This is the latest recevied weather packets stored in our database for station/object W8RSN-13. If no packets are shown the sender has not sent any weather packets the latest 10 day(s).
| Time | Temp. | Humidity | Pressure | Rain* | Wind** | Luminosity | Snow |
|---|---|---|---|---|---|---|---|
| 1788415168 | 18.89° C | 54% | 1017.2 hPa | - | - | - | - |
| 1788414867 | 18.89° C | 52% | 1017.4 hPa | - | - | - | - |
| 1788414566 | 18.89° C | 53% | 1017.1 hPa | - | - | - | - |
| 1788414265 | 19.44° C | 54% | 1017.2 hPa | - | - | - | - |
| 1788413964 | 19.44° C | 54% | 1017.1 hPa | - | - | - | - |
| 1788413664 | 19.44° C | 55% | 1017.1 hPa | - | - | - | - |
| 1788413362 | 19.44° C | 56% | 1017.2 hPa | - | - | - | - |
| 1788413062 | 19.44° C | 55% | 1017.2 hPa | - | - | - | - |
| 1788412761 | 19.44° C | 57% | 1017.2 hPa | - | - | - | - |
| 1788412460 | 19.44° C | 57% | 1017.3 hPa | - | - | - | - |
| 1788412159 | 19.44° C | 57% | 1017.2 hPa | - | - | - | - |
| 1788411858 | 19.44° C | 56% | 1017.2 hPa | - | - | - | - |
| 1788411558 | 20° C | 57% | 1017.3 hPa | - | - | - | - |
| 1788411257 | 20° C | 59% | 1017.2 hPa | - | - | - | - |
| 1788410955 | 20.56° C | 57% | 1017.1 hPa | - | - | - | - |
| 1788410675 | 20.56° C | 56% | 1017.1 hPa | - | - | - | - |
| 1788410374 | 20.56° C | 56% | 1017.2 hPa | - | - | - | - |
| 1788410073 | 20.56° C | 57% | 1016.9 hPa | - | - | - | - |
| 1788409772 | 21.11° C | 57% | 1016.8 hPa | - | - | - | - |
| 1788409471 | 21.11° C | 56% | 1017 hPa | - | - | - | - |
| 1788409170 | 21.11° C | 55% | 1017.2 hPa | - | - | - | - |
| 1788408869 | 21.11° C | 55% | 1016.9 hPa | - | - | - | - |
| 1788408569 | 21.11° C | 56% | 1016.8 hPa | - | - | - | - |
| 1788408268 | 21.11° C | 59% | 1016.8 hPa | - | - | - | - |
| 1788407967 | 21.11° C | 60% | 1016.7 hPa | - | - | - | - |
* Rain since midnight (hover to see other rain measurements)
** Current wind speed in m/s (hover to see current wind gust speed)